When you browse on this site, cookies collect data to enhance your experience and personalize the content and advertising you see.
Visit our Privacy Policy to learn more. By continuing to use the site, you agree to this use of cookies and data.
  • In Hungary
  • List of Countries
  • For 7 days
  • Water Temperature
  • Weather Map
  • News
  • Weather Widgets
  • user-avatar
    Login

    Hourly Weather Zelenyi Hai

    Today, 25 August, Sunday

    Time Temperature Precipitation Wind Pressure Humidity
    00:00 +16°C° 0 mm 2 mps 748 mmHg 71%
    01:00 +15°C° 0 mm 2 mps 748 mmHg 71%
    02:00 +15°C° 0 mm 2 mps 748 mmHg 70%
    03:00 +15°C° 0 mm 2 mps 748 mmHg 70%
    04:00 +14°C° 0 mm 2 mps 748 mmHg 70%
    05:00 +14°C° 0 mm 2 mps 748 mmHg 69%
    06:00 +15°C° 0 mm 2 mps 748 mmHg 68%
    07:00 +17°C° 0 mm 2 mps 749 mmHg 66%
    08:00 +18°C° 0 mm 2 mps 749 mmHg 65%
    09:00 +20°C° 0 mm 2 mps 749 mmHg 61%
    10:00 +22°C° 0 mm 3 mps 749 mmHg 57%
    11:00 +24°C° 0 mm 3 mps 749 mmHg 52%
    12:00 +25°C° 0 mm 3 mps 749 mmHg 51%
    13:00 +26°C° 0 mm 3 mps 749 mmHg 49%
    14:00 +26°C° 0 mm 2 mps 749 mmHg 48%
    15:00 +26°C° 0 mm 2 mps 748 mmHg 51%
    16:00 +25°C° 0 mm 2 mps 748 mmHg 53%
    17:00 +25°C° 0 mm 2 mps 748 mmHg 56%
    18:00 +23°C° 0 mm 2 mps 748 mmHg 59%
    19:00 +20°C° 0 mm 2 mps 748 mmHg 62%
    20:00 +18°C° 0 mm 2 mps 748 mmHg 65%
    21:00 +18°C° 0 mm 2 mps 748 mmHg 66%
    22:00 +17°C° 0 mm 2 mps 748 mmHg 68%
    23:00 +17°C° 0 mm 2 mps 748 mmHg 69%

    Tomorrow, 26 August, Monday

    Time Temperature Precipitation Wind Pressure Humidity
    00:00 +16°C° 0 mm 2 mps 748 mmHg 71%
    01:00 +16°C° 0 mm 2 mps 748 mmHg 73%
    02:00 +15°C° 0 mm 2 mps 748 mmHg 74%
    03:00 +15°C° 0 mm 2 mps 748 mmHg 78%
    04:00 +15°C° 0 mm 2 mps 748 mmHg 81%
    05:00 +14°C° 0 mm 2 mps 748 mmHg 85%
    06:00 +16°C° 0 mm 2 mps 748 mmHg 81%
    07:00 +18°C° 0 mm 3 mps 748 mmHg 78%
    08:00 +19°C° 0 mm 3 mps 748 mmHg 74%
    09:00 +21°C° 0 mm 3 mps 749 mmHg 69%
    10:00 +23°C° 0 mm 4 mps 749 mmHg 63%
    11:00 +26°C° 0 mm 4 mps 749 mmHg 58%
    12:00 +27°C° 0 mm 4 mps 749 mmHg 56%
    13:00 +27°C° 0 mm 4 mps 748 mmHg 53%
    14:00 +28°C° 0 mm 3 mps 748 mmHg 51%
    15:00 +27°C° 0 mm 3 mps 748 mmHg 53%
    16:00 +27°C° 0 mm 3 mps 747 mmHg 55%
    17:00 +27°C° 0 mm 2 mps 747 mmHg 58%
    18:00 +25°C° 0 mm 2 mps 747 mmHg 64%
    19:00 +23°C° 0 mm 2 mps 747 mmHg 70%
    20:00 +20°C° 0 mm 2 mps 747 mmHg 76%
    21:00 +19°C° 0 mm 2 mps 747 mmHg 78%
    22:00 +19°C° 0 mm 2 mps 747 mmHg 80%
    23:00 +18°C° 0 mm 2 mps 747 mmHg 82%

    Day after tomorrow, 27 August, Tuesday

    Time Temperature Precipitation Wind Pressure Humidity
    00:00 +18°C° 0 mm 2 mps 747 mmHg 81%
    01:00 +17°C° 0 mm 2 mps 747 mmHg 80%
    02:00 +17°C° 0 mm 2 mps 747 mmHg 79%
    03:00 +16°C° 0 mm 2 mps 747 mmHg 79%
    04:00 +16°C° 0 mm 2 mps 747 mmHg 80%
    05:00 +16°C° 0 mm 2 mps 747 mmHg 80%
    06:00 +17°C° 0 mm 2 mps 747 mmHg 76%
    07:00 +19°C° 0 mm 2 mps 747 mmHg 72%
    08:00 +20°C° 0 mm 2 mps 748 mmHg 69%
    09:00 +23°C° 0 mm 2 mps 748 mmHg 63%
    10:00 +25°C° 0 mm 2 mps 748 mmHg 58%
    11:00 +27°C° 0 mm 2 mps 748 mmHg 53%
    12:00 +27°C° 0 mm 2 mps 748 mmHg 51%
    13:00 +28°C° 0 mm 2 mps 747 mmHg 49%
    14:00 +28°C° 0 mm 2 mps 747 mmHg 47%
    15:00 +28°C° 0 mm 2 mps 747 mmHg 50%
    16:00 +28°C° 0 mm 2 mps 747 mmHg 53%
    17:00 +27°C° 0 mm 2 mps 747 mmHg 56%
    18:00 +25°C° 0 mm 2 mps 747 mmHg 60%
    19:00 +23°C° 0 mm 2 mps 747 mmHg 64%
    20:00 +20°C° 0 mm 2 mps 747 mmHg 69%
    21:00 +20°C° 0 mm 2 mps 747 mmHg 71%
    22:00 +19°C° 0 mm 2 mps 747 mmHg 73%
    23:00 +18°C° 0 mm 2 mps 747 mmHg 75%

    28 August, Wednesday

    Time Temperature Precipitation Wind Pressure Humidity
    00:00 +18°C° 0 mm 2 mps 747 mmHg 77%
    01:00 +17°C° 0 mm 2 mps 747 mmHg 79%
    02:00 +17°C° 0 mm 2 mps 747 mmHg 81%
    03:00 +16°C° 0 mm 1 mps 747 mmHg 81%
    04:00 +16°C° 0 mm 1 mps 747 mmHg 82%
    05:00 +16°C° 0 mm 1 mps 747 mmHg 83%
    06:00 +18°C° 0 mm 1 mps 747 mmHg 78%
    07:00 +20°C° 0 mm 1 mps 747 mmHg 74%
    08:00 +21°C° 0 mm 1 mps 747 mmHg 69%
    09:00 +23°C° 0 mm 2 mps 747 mmHg 65%
    10:00 +24°C° 0 mm 2 mps 747 mmHg 61%
    11:00 +26°C° 0 mm 2 mps 747 mmHg 56%
    12:00 +26°C° 0 mm 2 mps 747 mmHg 54%
    13:00 +27°C° 0 mm 3 mps 747 mmHg 52%
    14:00 +27°C° 0 mm 3 mps 746 mmHg 50%
    15:00 +27°C° 0 mm 3 mps 746 mmHg 53%
    16:00 +27°C° 0 mm 3 mps 746 mmHg 56%
    17:00 +26°C° 0 mm 3 mps 746 mmHg 58%
    18:00 +24°C° 0 mm 2 mps 746 mmHg 63%
    19:00 +21°C° 0 mm 2 mps 746 mmHg 68%
    20:00 +20°C° 0 mm 2 mps 746 mmHg 73%
    21:00 +19°C° 0 mm 2 mps 746 mmHg 72%
    22:00 +18°C° 0 mm 3 mps 746 mmHg 71%
    23:00 +17°C° 0 mm 3 mps 746 mmHg 70%

    29 August, Thursday

    Time Temperature Precipitation Wind Pressure Humidity
    00:00 +17°C° 0 mm 3 mps 746 mmHg 72%
    01:00 +16°C° 0 mm 3 mps 746 mmHg 73%
    02:00 +14°C° 0 mm 3 mps 746 mmHg 75%
    03:00 +14°C° 0 mm 3 mps 746 mmHg 76%
    04:00 +14°C° 0 mm 3 mps 746 mmHg 78%
    05:00 +13°C° 0 mm 3 mps 746 mmHg 80%
    06:00 +14°C° 0 mm 3 mps 746 mmHg 77%
    07:00 +16°C° 0 mm 3 mps 746 mmHg 74%
    08:00 +18°C° 0 mm 3 mps 746 mmHg 72%
    09:00 +19°C° 0 mm 4 mps 746 mmHg 68%
    10:00 +21°C° 0 mm 4 mps 746 mmHg 64%
    11:00 +22°C° 0 mm 4 mps 746 mmHg 60%
    12:00 +23°C° 0 mm 4 mps 746 mmHg 58%
    13:00 +23°C° 0 mm 4 mps 746 mmHg 57%
    14:00 +25°C° 0 mm 4 mps 746 mmHg 56%
    15:00 +23°C° 0 mm 4 mps 746 mmHg 58%
    16:00 +23°C° 0 mm 4 mps 745 mmHg 60%
    17:00 +22°C° 0 mm 4 mps 745 mmHg 62%
    18:00 +20°C° 0 mm 4 mps 745 mmHg 64%
    19:00 +18°C° 0 mm 4 mps 745 mmHg 66%
    20:00 +17°C° 0 mm 4 mps 745 mmHg 69%
    21:00 +15°C° 0 mm 4 mps 745 mmHg 64%
    22:00 +14°C° 0 mm 3 mps 746 mmHg 59%
    23:00 +14°C° 0 mm 3 mps 746 mmHg 55%

    30 August, Friday

    Time Temperature Precipitation Wind Pressure Humidity
    00:00 +13°C° 0 mm 3 mps 746 mmHg 55%
    01:00 +12°C° 0 mm 3 mps 746 mmHg 54%
    02:00 +12°C° 0 mm 3 mps 746 mmHg 54%
    03:00 +11°C° 0 mm 3 mps 746 mmHg 55%
    04:00 +11°C° 0 mm 3 mps 746 mmHg 56%
    05:00 +11°C° 0 mm 3 mps 746 mmHg 57%
    06:00 +12°C° 0 mm 3 mps 746 mmHg 57%
    07:00 +13°C° 0 mm 3 mps 746 mmHg 57%
    08:00 +15°C° 0 mm 4 mps 746 mmHg 57%
    09:00 +18°C° 0 mm 4 mps 746 mmHg 53%
    10:00 +19°C° 0 mm 4 mps 746 mmHg 49%
    11:00 +21°C° 0 mm 4 mps 746 mmHg 45%
    12:00 +22°C° 0 mm 4 mps 746 mmHg 44%
    13:00 +23°C° 0 mm 4 mps 746 mmHg 42%
    14:00 +25°C° 0 mm 4 mps 746 mmHg 40%
    15:00 +24°C° 0 mm 3 mps 746 mmHg 43%
    16:00 +24°C° 0 mm 3 mps 745 mmHg 46%
    17:00 +24°C° 0 mm 2 mps 745 mmHg 49%
    18:00 +21°C° 0 mm 2 mps 745 mmHg 53%
    19:00 +19°C° 0 mm 2 mps 745 mmHg 56%
    20:00 +17°C° 0 mm 3 mps 745 mmHg 60%
    21:00 +16°C° 0 mm 3 mps 745 mmHg 59%
    22:00 +14°C° 0 mm 3 mps 745 mmHg 59%
    23:00 +13°C° 0 mm 3 mps 745 mmHg 59%
    Show more